| time (UTC) | temp F | wind direction | speed MPH | gust MPH | rain 1hr in | rain 24hr in | rain mn in | humidity % | barometer mb |
| 20260507154815 | 64 | 197 | 0.0 | 0.0 | 0.05 | 0.00 | 1.00 | 22 | 1009.7 |
| 20260507154258 | 64 | 199 | 0.0 | 0.0 | 0.05 | 0.00 | 1.00 | 23 | 1009.9 |
| 20260507153742 | 64 | 220 | 0.0 | 0.0 | 0.05 | 0.00 | 1.00 | 23 | 1009.8 |
| 20260507153225 | 65 | 177 | 0.0 | 0.0 | 0.05 | 0.00 | 1.00 | 22 | 1009.8 |
| 20260507152706 | 65 | 191 | 0.0 | 0.0 | 0.05 | 0.00 | 1.00 | 21 | 1010.0 |
| 20260507152149 | 65 | 240 | 0.0 | 0.0 | 0.05 | 0.00 | 1.00 | 23 | 1009.8 |
| 20260507151631 | 65 | 190 | 0.0 | 0.0 | 0.05 | 0.00 | 1.00 | 23 | 1009.9 |
| 20260507151113 | 65 | 195 | 0.0 | 0.0 | 0.05 | 0.00 | 1.00 | 23 | 1009.8 |
| 20260507150555 | 65 | 259 | 0.0 | 0.0 | 0.05 | 0.00 | 1.00 | 22 | 1009.7 |
| 20260507150038 | 66 | 261 | 0.0 | 0.0 | 0.05 | 0.00 | 1.00 | 23 | 1010.0 |
| 20260507145521 | 66 | 191 | 0.0 | 0.0 | 0.05 | 0.00 | 1.00 | 22 | 1009.8 |
| 20260507145004 | 65 | 187 | 0.0 | 0.0 | 0.05 | 0.00 | 1.00 | 22 | 1010.0 |
| 20260507143946 | 65 | 202 | 0.0 | 0.0 | 0.05 | 0.00 | 1.00 | 23 | 1009.8 |
| 20260507143430 | 65 | 156 | 0.0 | 0.0 | 0.05 | 0.00 | 1.00 | 22 | 1009.9 |
| 20260507142913 | 64 | 229 | 0.0 | 0.0 | 0.05 | 0.00 | 1.00 | 23 | 1009.8 |
| 20260507142356 | 64 | 245 | 0.0 | 0.0 | 0.05 | 0.00 | 1.00 | 23 | 1009.8 |
| 20260507141840 | 65 | 226 | 0.0 | 0.0 | 0.05 | 0.00 | 1.00 | 23 | 1010.0 |
| 20260507141323 | 65 | 233 | 0.0 | 0.0 | 0.05 | 0.00 | 1.00 | 23 | 1010.0 |
| 20260507140807 | 65 | 221 | 0.0 | 0.0 | 0.05 | 0.00 | 1.00 | 22 | 1009.9 |
| 20260507140250 | 65 | 190 | 0.0 | 0.0 | 0.05 | 0.00 | 1.00 | 23 | 1009.9 |
| 20260507135734 | 65 | 206 | 0.0 | 0.0 | 0.05 | 0.00 | 1.00 | 23 | 1009.8 |
| 20260507135217 | 65 | 192 | 0.0 | 0.0 | 0.05 | 0.00 | 1.00 | 23 | 1009.9 |
| 20260507134701 | 65 | 199 | 0.0 | 0.0 | 0.05 | 0.00 | 1.00 | 22 | 1009.9 |
| 20260507134144 | 65 | 203 | 0.0 | 0.0 | 0.05 | 0.00 | 1.00 | 22 | 1010.1 |
| 20260507133628 | 65 | 189 | 0.0 | 0.0 | 0.05 | 0.00 | 1.00 | 22 | 1010.1 |
| 20260507133111 | 65 | 188 | 0.0 | 0.0 | 0.05 | 0.00 | 1.00 | 19 | 1010.2 |
| 20260507132555 | 66 | 196 | 0.0 | 0.0 | 0.05 | 0.00 | 1.00 | 22 | 1010.4 |
| 20260507132038 | 66 | 215 | 0.0 | 0.0 | 0.05 | 0.00 | 1.00 | 20 | 1010.4 |
| 20260507131522 | 65 | 320 | 0.0 | 0.0 | 0.05 | 0.00 | 1.00 | 22 | 1010.6 |
| 20260507131005 | 65 | 180 | 0.0 | 0.0 | 0.05 | 0.00 | 1.00 | 21 | 1010.5 |
| 20260507125947 | 64 | 193 | 0.0 | 0.0 | 0.05 | 0.00 | 1.00 | 23 | 1010.3 |
| 20260507125431 | 63 | 231 | 0.0 | 0.0 | 0.05 | 0.00 | 1.00 | 22 | 1010.3 |
| 20260507124914 | 63 | 222 | 0.0 | 0.0 | 0.05 | 0.00 | 1.00 | 24 | 1010.2 |
| 20260507124358 | 62 | 206 | 0.0 | 0.0 | 0.05 | 0.00 | 1.00 | 22 | 1010.7 |
| 20260507123841 | 62 | 170 | 0.0 | 0.0 | 0.05 | 0.00 | 1.00 | 25 | 1010.6 |
| 20260507123324 | 62 | 214 | 0.0 | 0.0 | 0.05 | 0.00 | 1.00 | 24 | 1010.4 |
| 20260507122808 | 62 | 223 | 0.0 | 0.0 | 0.05 | 0.00 | 1.00 | 26 | 1010.4 |
| 20260507122251 | 62 | 214 | 0.0 | 0.0 | 0.05 | 0.00 | 1.00 | 24 | 1010.5 |
| 20260507121735 | 61 | 205 | 0.0 | 0.0 | 0.05 | 0.00 | 1.00 | 25 | 1010.5 |
| 20260507121218 | 61 | 225 | 0.0 | 0.0 | 0.05 | 0.00 | 1.00 | 22 | 1010.7 |
| 20260507120702 | 60 | 217 | 0.0 | 0.0 | 0.05 | 0.00 | 1.00 | 23 | 1010.6 |
| 20260507120145 | 60 | 196 | 0.0 | 0.0 | 0.05 | 0.00 | 1.00 | 26 | 1010.4 |
| 20260507115629 | 61 | 206 | 0.0 | 0.0 | 0.05 | 0.00 | 1.00 | 28 | 1010.6 |
| 20260507115112 | 62 | 201 | 0.0 | 0.0 | 0.05 | 0.00 | 1.00 | 28 | 1010.5 |
| 20260507114555 | 62 | 209 | 0.0 | 0.0 | 0.05 | 0.00 | 1.00 | 27 | 1010.6 |
| 20260507114039 | 62 | 222 | 0.0 | 0.0 | 0.05 | 0.00 | 1.00 | 25 | 1010.6 |
| 20260507113522 | 61 | 211 | 0.0 | 0.0 | 0.05 | 0.00 | 1.00 | 24 | 1010.5 |
| 20260507113006 | 60 | 227 | 0.0 | 0.0 | 0.05 | 0.00 | 1.00 | 23 | 1010.6 |
| 20260507112449 | 59 | 206 | 0.0 | 0.0 | 0.05 | 0.00 | 1.00 | 25 | 1010.5 |
| 20260507111932 | 58 | 239 | 0.0 | 0.0 | 0.05 | 0.00 | 1.00 | 27 | 1010.4 |
| 20260507111415 | 57 | 248 | 0.0 | 0.0 | 0.05 | 0.00 | 1.00 | 30 | 1010.5 |
| 20260507110858 | 57 | 213 | 0.0 | 0.0 | 0.05 | 0.00 | 1.00 | 30 | 1010.6 |
| 20260507110339 | 57 | 217 | 0.0 | 0.0 | 0.05 | 0.00 | 1.00 | 31 | 1010.7 |
| 20260507105822 | 57 | 233 | 0.0 | 0.0 | 0.05 | 0.00 | 1.00 | 31 | 1010.7 |
| 20260507105306 | 58 | 210 | 0.0 | 0.0 | 0.05 | 0.00 | 1.00 | 33 | 1011.0 |
| 20260507104748 | 59 | 209 | 0.0 | 0.0 | 0.05 | 0.00 | 1.00 | 31 | 1010.6 |
| 20260507104231 | 59 | 201 | 0.0 | 0.0 | 0.05 | 0.00 | 1.00 | 33 | 1010.6 |
| 20260507103714 | 59 | 210 | 0.0 | 0.0 | 0.05 | 0.00 | 1.00 | 31 | 1011.0 |
| 20260507103157 | 59 | 224 | 0.0 | 0.0 | 0.05 | 0.00 | 1.00 | 29 | 1010.7 |
| 20260507102640 | 59 | 227 | 0.0 | 0.0 | 0.05 | 0.00 | 1.00 | 29 | 1010.7 |
| 20260507102123 | 59 | 249 | 0.0 | 0.0 | 0.05 | 0.00 | 1.00 | 29 | 1010.7 |
| 20260507101606 | 58 | 249 | 0.0 | 0.0 | 0.05 | 0.00 | 1.00 | 31 | 1010.6 |
| 20260507101049 | 58 | 171 | 0.0 | 0.0 | 0.05 | 0.00 | 1.00 | 30 | 1010.5 |
| 20260507100530 | 58 | 315 | 0.0 | 0.0 | 0.05 | 0.00 | 1.00 | 29 | 1010.9 |
| 20260507100012 | 57 | 207 | 0.0 | 0.0 | 0.05 | 0.00 | 1.00 | 31 | 1010.9 |
| 20260507095455 | 57 | 203 | 0.0 | 0.0 | 0.05 | 0.00 | 1.00 | 32 | 1010.9 |
| 20260507094938 | 57 | 227 | 0.0 | 0.0 | 0.05 | 0.00 | 1.00 | 33 | 1010.7 |
| 20260507094422 | 58 | 220 | 0.0 | 0.0 | 0.05 | 0.00 | 1.00 | 33 | 1010.6 |
| 20260507093905 | 59 | 207 | 0.0 | 0.0 | 0.05 | 0.00 | 1.00 | 33 | 1010.7 |
| 20260507093349 | 59 | 226 | 0.0 | 0.0 | 0.05 | 0.00 | 1.00 | 32 | 1010.8 |
| 20260507092832 | 59 | 241 | 0.0 | 0.0 | 0.05 | 0.00 | 1.00 | 32 | 1010.7 |
| 20260507092316 | 60 | 202 | 0.0 | 0.0 | 0.05 | 0.00 | 1.00 | 31 | 1010.9 |
| 20260507091759 | 60 | 219 | 0.0 | 0.0 | 0.05 | 0.00 | 1.00 | 29 | 1010.7 |
| 20260507091243 | 60 | 223 | 0.0 | 0.0 | 0.05 | 0.00 | 1.00 | 30 | 1010.8 |
| 20260507090726 | 59 | 218 | 0.0 | 0.0 | 0.05 | 0.00 | 1.00 | 29 | 1010.7 |
| 20260507090209 | 59 | 226 | 0.0 | 0.0 | 0.05 | 0.00 | 1.00 | 30 | 1010.8 |
| 20260507085653 | 59 | 241 | 0.0 | 0.0 | 0.05 | 0.00 | 1.00 | 31 | 1010.5 |
| 20260507085136 | 58 | 264 | 0.0 | 0.0 | 0.05 | 0.00 | 1.00 | 29 | 1010.4 |
| 20260507084620 | 57 | 221 | 0.0 | 0.0 | 0.05 | 0.00 | 1.00 | 29 | 1010.5 |
| 20260507084103 | 56 | 244 | 0.0 | 0.0 | 0.05 | 0.00 | 1.00 | 30 | 1010.5 |
| 20260507083547 | 55 | 218 | 0.0 | 0.0 | 0.05 | 0.00 | 1.00 | 32 | 1010.6 |
| 20260507083030 | 54 | 223 | 0.0 | 0.0 | 0.05 | 0.00 | 1.00 | 39 | 1010.4 |
| 20260507082514 | 53 | 205 | 0.0 | 0.0 | 0.05 | 0.00 | 1.00 | 43 | 1010.7 |
| 20260507081957 | 53 | 218 | 0.0 | 0.0 | 0.05 | 0.00 | 1.00 | 46 | 1010.4 |
| 20260507081440 | 53 | 229 | 0.0 | 0.0 | 0.05 | 0.00 | 1.00 | 50 | 1010.6 |
| 20260507080921 | 52 | 224 | 0.0 | 0.0 | 0.05 | 0.00 | 1.00 | 51 | 1010.5 |
| 20260507080404 | 52 | 196 | 0.0 | 0.0 | 0.05 | 0.00 | 1.00 | 52 | 1010.6 |
| 20260507075845 | 52 | 214 | 0.0 | 0.0 | 0.05 | 0.00 | 1.00 | 54 | 1010.2 |
| 20260507075328 | 52 | 218 | 0.0 | 0.0 | 0.05 | 0.00 | 1.00 | 57 | 1010.7 |
| 20260507074811 | 52 | 231 | 0.0 | 0.0 | 0.05 | 0.00 | 1.00 | 59 | 1010.4 |
| 20260507074252 | 52 | 226 | 0.0 | 0.0 | 0.05 | 0.00 | 1.00 | 63 | 1010.4 |
| 20260507073735 | 52 | 224 | 0.0 | 0.0 | 0.05 | 0.00 | 1.00 | 70 | 1010.5 |
| 20260507073215 | 51 | 226 | 0.0 | 0.0 | 0.05 | 0.00 | 1.00 | 72 | 1010.3 |
| 20260507072659 | 51 | 224 | 0.0 | 0.0 | 0.05 | 0.00 | 1.00 | 76 | 1010.5 |
| 20260507072142 | 51 | 222 | 0.0 | 0.0 | 0.05 | 0.00 | 1.00 | 78 | 1010.4 |
| 20260507071625 | 51 | 225 | 0.0 | 0.0 | 0.05 | 0.00 | 1.00 | 79 | 1010.5 |
| 20260507071108 | 51 | 223 | 0.0 | 0.0 | 0.05 | 0.00 | 1.00 | 79 | 1010.2 |
| 20260507070549 | 51 | 227 | 0.0 | 0.0 | 0.05 | 0.00 | 1.00 | 79 | 1010.4 |
| 20260507070031 | 51 | 229 | 0.0 | 0.0 | 0.05 | 0.00 | 1.00 | 80 | 1010.1 |
| 20260507065512 | 51 | 226 | 0.0 | 0.0 | 0.05 | 0.00 | 1.00 | 80 | 1010.3 |
| 20260507064955 | 51 | 224 | 0.0 | 0.0 | 0.05 | 0.00 | 1.00 | 81 | 1010.2 |
| 20260507064437 | 51 | 224 | 0.0 | 0.0 | 0.05 | 0.00 | 1.00 | 81 | 1010.3 |
| 20260507063920 | 51 | 224 | 0.0 | 0.0 | 0.05 | 0.00 | 1.00 | 81 | 1010.2 |
| 20260507063404 | 51 | 224 | 0.0 | 0.0 | 0.05 | 0.00 | 1.00 | 81 | 1010.1 |
| 20260507062847 | 51 | 224 | 0.0 | 0.0 | 0.05 | 0.00 | 1.00 | 81 | 1010.1 |
| 20260507062331 | 51 | 224 | 0.0 | 0.0 | 0.05 | 0.00 | 1.00 | 82 | 1009.9 |
| 20260507061814 | 51 | 224 | 0.0 | 0.0 | 0.05 | 0.00 | 1.00 | 82 | 1010.1 |
| 20260507061258 | 51 | 223 | 0.0 | 0.0 | 0.05 | 0.00 | 1.00 | 82 | 1009.9 |
| 20260507060741 | 51 | 227 | 0.0 | 0.0 | 0.05 | 0.00 | 1.00 | 82 | 1009.9 |
| 20260507060225 | 51 | 227 | 0.0 | 0.0 | 0.05 | 0.00 | 1.00 | 82 | 1009.9 |
| 20260507055708 | 51 | 230 | 0.0 | 0.0 | 0.05 | 0.00 | 1.00 | 82 | 1009.9 |
| 20260507055151 | 51 | 227 | 0.0 | 0.0 | 0.05 | 0.00 | 1.00 | 82 | 1010.0 |
| 20260507054635 | 51 | 227 | 0.0 | 0.0 | 0.05 | 0.00 | 1.00 | 82 | 1009.7 |
| 20260507054118 | 50 | 227 | 0.0 | 0.0 | 0.05 | 0.00 | 1.00 | 82 | 1010.0 |
| 20260507053602 | 50 | 225 | 0.0 | 0.0 | 0.05 | 0.00 | 1.00 | 82 | 1009.6 |
| 20260507053045 | 50 | 225 | 0.0 | 0.0 | 0.05 | 0.00 | 1.00 | 82 | 1009.6 |
| 20260507052529 | 50 | 224 | 0.0 | 0.0 | 0.05 | 0.00 | 1.00 | 82 | 1009.9 |
| 20260507052012 | 50 | 225 | 0.0 | 0.0 | 0.05 | 0.00 | 1.00 | 82 | 1009.5 |
| 20260507050453 | 50 | 224 | 0.0 | 0.0 | 0.05 | 0.00 | 1.00 | 82 | 1009.4 |
| 20260507045936 | 50 | 224 | 0.0 | 0.0 | 0.05 | 0.00 | 1.00 | 82 | 1009.2 |
| 20260507045419 | 50 | 224 | 0.0 | 0.0 | 0.04 | 0.00 | 1.00 | 81 | 1009.4 |
| 20260507044903 | 50 | 224 | 0.0 | 0.0 | 0.04 | 0.00 | 1.00 | 81 | 1009.1 |
| 20260507044346 | 50 | 224 | 0.0 | 0.0 | 0.04 | 0.00 | 1.00 | 81 | 1009.1 |
| 20260507043830 | 50 | 226 | 0.0 | 0.0 | 0.04 | 0.00 | 1.00 | 81 | 1008.9 |
| 20260507043314 | 50 | 227 | 0.0 | 0.0 | 0.04 | 0.00 | 1.00 | 81 | 1009.0 |
| 20260507042756 | 50 | 227 | 0.0 | 0.0 | 0.04 | 0.00 | 1.00 | 81 | 1008.9 |
| 20260507042240 | 50 | 228 | 0.0 | 0.0 | 0.04 | 0.00 | 1.00 | 81 | 1009.0 |
| 20260507041723 | 50 | 236 | 0.0 | 0.0 | 0.04 | 0.00 | 1.00 | 81 | 1008.8 |
| 20260507041206 | 50 | 229 | 0.0 | 0.0 | 0.04 | 0.00 | 1.00 | 81 | 1008.7 |
| 20260507040650 | 50 | 230 | 0.0 | 0.0 | 0.04 | 0.00 | 1.00 | 81 | 1008.7 |
| 20260507040133 | 50 | 230 | 0.0 | 0.0 | 0.04 | 0.00 | 1.00 | 81 | 1008.9 |
| 20260507035617 | 50 | 229 | 0.0 | 0.0 | 0.04 | 0.00 | 1.00 | 81 | 1008.8 |
| 20260507035100 | 50 | 229 | 0.0 | 0.0 | 0.04 | 0.00 | 1.00 | 81 | 1008.8 |
| 20260507034544 | 50 | 234 | 0.0 | 0.0 | 0.04 | 0.00 | 1.00 | 81 | 1008.9 |
| 20260507034027 | 50 | 235 | 0.0 | 0.0 | 0.04 | 0.00 | 1.00 | 81 | 1008.6 |
| 20260507033511 | 50 | 224 | 0.0 | 0.0 | 0.04 | 0.00 | 1.00 | 81 | 1008.7 |
| 20260507031949 | 50 | 227 | 0.0 | 0.0 | 0.04 | 0.00 | 1.00 | 81 | 1008.6 |
| 20260507031432 | 50 | 230 | 0.0 | 0.0 | 0.04 | 0.00 | 1.00 | 81 | 1008.5 |
| 20260507030913 | 50 | 230 | 0.0 | 0.0 | 0.04 | 0.00 | 1.00 | 81 | 1008.6 |
| 20260507030355 | 50 | 236 | 0.0 | 0.0 | 0.04 | 0.00 | 1.00 | 81 | 1008.6 |
| 20260507025838 | 50 | 230 | 0.0 | 0.0 | 0.04 | 0.00 | 1.00 | 81 | 1008.3 |
| 20260507025321 | 50 | 230 | 0.0 | 0.0 | 0.04 | 0.00 | 1.00 | 81 | 1008.5 |
| 20260507024802 | 50 | 233 | 0.0 | 0.0 | 0.04 | 0.00 | 1.00 | 81 | 1008.5 |
| 20260507024245 | 50 | 234 | 0.0 | 0.0 | 0.03 | 0.00 | 1.00 | 81 | 1008.7 |
| 20260507023727 | 50 | 232 | 0.0 | 0.0 | 0.03 | 0.00 | 1.00 | 81 | 1008.4 |
| 20260507023210 | 50 | 229 | 0.0 | 0.0 | 0.03 | 0.00 | 1.00 | 81 | 1008.5 |
| 20260507022653 | 50 | 229 | 0.0 | 0.0 | 0.03 | 0.00 | 1.00 | 81 | 1008.4 |
| 20260507022135 | 50 | 229 | 0.0 | 0.0 | 0.03 | 0.00 | 1.00 | 80 | 1008.4 |
| 20260507021619 | 50 | 229 | 0.0 | 0.0 | 0.02 | 0.00 | 1.00 | 80 | 1008.1 |
| 20260507021102 | 50 | 229 | 0.0 | 0.0 | 0.02 | 0.00 | 1.00 | 80 | 1008.5 |
| 20260507020543 | 50 | 225 | 0.0 | 0.0 | 0.02 | 0.00 | 1.00 | 80 | 1008.3 |
| 20260507020024 | 50 | 225 | 0.0 | 0.0 | 0.02 | 0.00 | 1.00 | 80 | 1008.3 |
| 20260507015506 | 50 | 225 | 0.0 | 0.0 | 0.02 | 0.00 | 1.00 | 80 | 1008.1 |
| 20260507014949 | 50 | 225 | 0.0 | 0.0 | 0.01 | 0.00 | 1.00 | 80 | 1008.3 |
| 20260507014432 | 50 | 225 | 0.0 | 0.0 | 0.01 | 0.00 | 1.00 | 80 | 1008.2 |
| 20260507013915 | 50 | 225 | 0.0 | 0.0 | 0.01 | 0.00 | 1.00 | 80 | 1008.0 |
| 20260507013358 | 50 | 225 | 0.0 | 0.0 | 0.01 | 0.00 | 1.00 | 80 | 1007.9 |
| 20260507012841 | 50 | 224 | 0.0 | 0.0 | 0.01 | 0.00 | 1.00 | 80 | 1008.2 |
| 20260507012325 | 50 | 224 | 0.0 | 0.0 | 0.01 | 0.00 | 1.00 | 80 | 1008.0 |
| 20260507011808 | 50 | 225 | 0.0 | 0.0 | 0.00 | 0.00 | 1.00 | 80 | 1008.1 |
| 20260507011252 | 50 | 225 | 0.0 | 0.0 | 0.00 | 0.00 | 1.00 | 80 | 1008.0 |
| 20260507010735 | 50 | 224 | 0.0 | 0.0 | 0.00 | 0.00 | 1.00 | 80 | 1007.9 |
| 20260507010218 | 50 | 225 | 0.0 | 0.0 | 0.00 | 0.00 | 1.00 | 80 | 1007.8 |
| 20260507005702 | 50 | 225 | 0.0 | 0.0 | 0.00 | 0.00 | 1.00 | 80 | 1007.8 |
| 20260507005145 | 50 | 225 | 0.0 | 0.0 | 0.00 | 0.00 | 1.00 | 80 | 1008.0 |
| 20260507004629 | 50 | 223 | 0.0 | 0.0 | 0.00 | 0.00 | 1.00 | 80 | 1008.0 |
| 20260507004112 | 50 | 224 | 0.0 | 0.0 | 0.00 | 0.00 | 1.00 | 80 | 1008.0 |
| 20260507003556 | 50 | 221 | 0.0 | 0.0 | 0.00 | 0.00 | 1.00 | 80 | 1007.8 |
| 20260507003039 | 50 | 229 | 0.0 | 0.0 | 0.00 | 0.00 | 1.00 | 80 | 1007.9 |
| 20260507002523 | 50 | 229 | 0.0 | 0.0 | 0.00 | 0.00 | 1.00 | 80 | 1007.9 |
| 20260507002006 | 50 | 229 | 0.0 | 0.0 | 0.00 | 0.00 | 1.00 | 79 | 1007.6 |
| 20260507000447 | 50 | 229 | 0.0 | 0.0 | 0.00 | 0.00 | 1.00 | 79 | 1007.8 |
| 20260506235930 | 50 | 229 | 0.0 | 0.0 | 0.00 | 0.00 | 1.00 | 79 | 1007.5 |
| 20260506235413 | 50 | 229 | 0.0 | 0.0 | 0.00 | 0.00 | 1.00 | 79 | 1007.7 |
| 20260506234857 | 50 | 231 | 0.0 | 0.0 | 0.00 | 0.00 | 1.00 | 79 | 1007.7 |
| 20260506234340 | 50 | 228 | 0.0 | 0.0 | 0.00 | 0.00 | 1.00 | 79 | 1007.6 |
| 20260506233824 | 50 | 229 | 0.0 | 0.0 | 0.00 | 0.00 | 1.00 | 79 | 1007.9 |
| 20260506233307 | 50 | 228 | 0.0 | 0.0 | 0.00 | 0.00 | 1.00 | 79 | 1007.6 |
| 20260506232751 | 50 | 223 | 0.0 | 0.0 | 0.00 | 0.00 | 1.00 | 79 | 1007.5 |
| 20260506232234 | 50 | 230 | 0.0 | 0.0 | 0.00 | 0.00 | 1.00 | 78 | 1007.8 |
| 20260506231717 | 50 | 230 | 0.0 | 0.0 | 0.00 | 0.00 | 1.00 | 78 | 1007.7 |
| 20260506231201 | 50 | 235 | 0.0 | 0.0 | 0.00 | 0.00 | 1.00 | 77 | 1007.8 |
| 20260506230644 | 50 | 229 | 0.0 | 0.0 | 0.00 | 0.00 | 1.00 | 77 | 1007.9 |
| 20260506230128 | 50 | 229 | 0.0 | 0.0 | 0.00 | 0.00 | 1.00 | 77 | 1007.7 |
| 20260506225610 | 50 | 228 | 0.0 | 0.0 | 0.00 | 0.00 | 1.00 | 76 | 1007.8 |
| 20260506225052 | 50 | 229 | 0.0 | 0.0 | 0.00 | 0.00 | 1.00 | 76 | 1007.6 |
| 20260506224535 | 50 | 229 | 0.0 | 0.0 | 0.00 | 0.00 | 1.00 | 76 | 1007.8 |
| 20260506224018 | 50 | 228 | 0.0 | 0.0 | 0.00 | 0.00 | 1.00 | 75 | 1007.8 |
| 20260506223501 | 50 | 229 | 0.0 | 0.0 | 0.00 | 0.00 | 1.00 | 75 | 1007.6 |
| 20260506222945 | 51 | 226 | 0.0 | 0.0 | 0.00 | 0.00 | 1.00 | 75 | 1007.6 |
| 20260506222428 | 51 | 232 | 0.0 | 0.0 | 0.00 | 0.00 | 1.00 | 75 | 1007.7 |
| 20260506221911 | 51 | 233 | 0.0 | 0.0 | 0.00 | 0.00 | 1.00 | 75 | 1007.5 |
| 20260506221354 | 51 | 229 | 0.0 | 0.0 | 0.00 | 0.00 | 1.00 | 75 | 1007.5 |
| 20260506220835 | 51 | 245 | 0.0 | 0.0 | 0.00 | 0.00 | 1.00 | 75 | 1007.5 |
| 20260506220318 | 51 | 235 | 0.0 | 0.0 | 0.00 | 0.00 | 1.00 | 74 | 1007.7 |
| 20260506215801 | 51 | 227 | 0.0 | 0.0 | 0.23 | 0.00 | 1.00 | 74 | 1007.6 |
| 20260506215245 | 51 | 225 | 0.0 | 0.0 | 0.23 | 0.00 | 1.00 | 74 | 1007.6 |
| 20260506214728 | 51 | 226 | 0.0 | 0.0 | 0.23 | 0.00 | 1.00 | 74 | 1007.5 |
| 20260506214211 | 51 | 232 | 0.0 | 0.0 | 0.23 | 0.00 | 1.00 | 74 | 1007.8 |
| 20260506213654 | 51 | 224 | 0.0 | 0.0 | 0.23 | 0.00 | 1.00 | 73 | 1007.8 |
| 20260506213137 | 51 | 229 | 0.0 | 0.0 | 0.23 | 0.00 | 1.00 | 73 | 1007.5 |
| 20260506212618 | 51 | 234 | 0.0 | 0.0 | 0.23 | 0.00 | 1.00 | 73 | 1007.5 |
| 20260506212102 | 51 | 234 | 0.0 | 0.0 | 0.23 | 0.00 | 1.00 | 72 | 1007.7 |
| 20260506211545 | 51 | 234 | 0.0 | 0.0 | 0.23 | 0.00 | 1.00 | 72 | 1007.5 |
| 20260506211029 | 51 | 234 | 0.0 | 0.0 | 0.23 | 0.00 | 1.00 | 72 | 1007.4 |
| 20260506210009 | 51 | 238 | 0.0 | 0.0 | 0.23 | 0.00 | 1.00 | 71 | 1007.4 |
| 20260506203947 | 51 | 234 | 0.0 | 0.0 | 0.23 | 0.00 | 1.00 | 71 | 1007.4 |
| 20260506203430 | 51 | 234 | 0.0 | 0.0 | 0.23 | 0.00 | 1.00 | 71 | 1007.4 |
| 20260506202914 | 50 | 222 | 0.0 | 0.0 | 0.23 | 0.00 | 1.00 | 70 | 1007.5 |
| 20260506202357 | 50 | 222 | 0.0 | 0.0 | 0.23 | 0.00 | 1.00 | 70 | 1007.4 |
| 20260506201840 | 50 | 218 | 0.0 | 0.0 | 0.23 | 0.00 | 1.00 | 70 | 1007.0 |
| 20260506201324 | 50 | 226 | 0.0 | 0.0 | 0.23 | 0.00 | 1.00 | 68 | 1007.1 |
| 20260506200807 | 50 | 225 | 0.0 | 0.0 | 0.23 | 0.00 | 1.00 | 67 | 1007.2 |
| 20260506200248 | 50 | 224 | 0.0 | 0.0 | 0.23 | 0.00 | 1.00 | 66 | 1006.9 |
| 20260506195730 | 50 | 225 | 0.0 | 0.0 | 0.23 | 0.00 | 1.00 | 65 | 1007.0 |
| 20260506195212 | 50 | 226 | 0.0 | 0.0 | 0.23 | 0.00 | 1.00 | 64 | 1006.6 |
| 20260506194654 | 50 | 227 | 0.0 | 0.0 | 0.23 | 0.00 | 1.00 | 63 | 1006.6 |
| 20260506194135 | 50 | 232 | 0.0 | 0.0 | 0.23 | 0.00 | 1.00 | 62 | 1006.7 |
| 20260506193618 | 50 | 229 | 0.0 | 0.0 | 0.23 | 0.00 | 1.00 | 62 | 1006.5 |
| 20260506193102 | 50 | 234 | 0.0 | 0.0 | 0.23 | 0.00 | 1.00 | 61 | 1006.6 |
| 20260506192545 | 50 | 230 | 0.0 | 0.0 | 0.23 | 0.00 | 1.00 | 60 | 1006.4 |
| 20260506192028 | 51 | 230 | 0.0 | 0.0 | 0.23 | 0.00 | 1.00 | 60 | 1006.5 |
| 20260506191511 | 51 | 231 | 0.0 | 0.0 | 0.23 | 0.00 | 1.00 | 59 | 1006.4 |
| 20260506190453 | 51 | 228 | 0.0 | 0.0 | 0.23 | 0.00 | 1.00 | 57 | 1006.4 |
| 20260506185936 | 51 | 235 | 0.0 | 0.0 | 0.23 | 0.00 | 1.00 | 56 | 1006.3 |
| 20260506185420 | 51 | 235 | 0.0 | 0.0 | 0.23 | 0.00 | 1.00 | 56 | 1006.2 |
| 20260506184903 | 52 | 222 | 0.0 | 0.0 | 0.23 | 0.00 | 1.00 | 55 | 1006.2 |
| 20260506184347 | 52 | 225 | 0.0 | 0.0 | 0.23 | 0.00 | 1.00 | 54 | 1006.3 |
| 20260506183830 | 52 | 231 | 0.0 | 0.0 | 0.23 | 0.00 | 1.00 | 52 | 1006.0 |
| 20260506183314 | 52 | 234 | 0.0 | 0.0 | 0.23 | 0.00 | 1.00 | 51 | 1006.0 |
| 20260506182757 | 52 | 231 | 0.0 | 0.0 | 0.23 | 0.00 | 1.00 | 51 | 1006.0 |
| 20260506182240 | 52 | 232 | 0.0 | 0.0 | 0.23 | 0.00 | 1.00 | 51 | 1005.9 |
| 20260506181724 | 52 | 228 | 0.0 | 0.0 | 0.23 | 0.00 | 1.00 | 50 | 1005.9 |
| 20260506181207 | 52 | 226 | 0.0 | 0.0 | 0.23 | 0.00 | 1.00 | 50 | 1005.8 |
| 20260506180651 | 52 | 226 | 0.0 | 0.0 | 0.23 | 0.00 | 1.00 | 49 | 1005.9 |
| 20260506180134 | 53 | 229 | 0.0 | 0.0 | 0.23 | 0.00 | 1.00 | 49 | 1005.9 |
| 20260506175618 | 53 | 222 | 0.0 | 0.0 | 0.23 | 0.00 | 1.00 | 49 | 1005.7 |
| 20260506175101 | 53 | 222 | 0.0 | 0.0 | 0.23 | 0.00 | 1.00 | 49 | 1005.7 |
| 20260506174544 | 53 | 222 | 0.0 | 0.0 | 0.23 | 0.00 | 1.00 | 49 | 1005.6 |
| 20260506174027 | 53 | 223 | 0.0 | 0.0 | 0.23 | 0.00 | 1.00 | 49 | 1005.6 |
| 20260506173511 | 53 | 222 | 0.0 | 0.0 | 0.23 | 0.00 | 1.00 | 49 | 1005.6 |
| 20260506171950 | 53 | 228 | 0.0 | 0.0 | 0.23 | 0.00 | 1.00 | 49 | 1005.5 |
| 20260506171434 | 53 | 225 | 0.0 | 0.0 | 0.23 | 0.00 | 1.00 | 49 | 1005.3 |
| 20260506170917 | 53 | 227 | 0.0 | 0.0 | 0.23 | 0.00 | 1.00 | 48 | 1005.0 |
| 20260506170400 | 53 | 228 | 0.0 | 0.0 | 0.23 | 0.00 | 1.00 | 49 | 1005.2 |
| 20260506165843 | 53 | 215 | 0.0 | 0.0 | 0.23 | 0.00 | 1.00 | 49 | 1005.2 |
| 20260506165325 | 53 | 228 | 0.0 | 0.0 | 0.23 | 0.00 | 1.00 | 49 | 1005.0 |
| 20260506164808 | 53 | 225 | 0.0 | 0.0 | 0.23 | 0.00 | 1.00 | 49 | 1005.0 |
| 20260506164249 | 53 | 225 | 0.0 | 0.0 | 0.23 | 0.00 | 1.00 | 49 | 1005.1 |
| 20260506163733 | 53 | 225 | 0.0 | 0.0 | 0.23 | 0.00 | 1.00 | 48 | 1005.1 |
| 20260506163214 | 53 | 227 | 0.0 | 0.0 | 0.23 | 0.00 | 1.00 | 48 | 1005.1 |
| 20260506162657 | 53 | 225 | 0.0 | 0.0 | 0.23 | 0.00 | 1.00 | 48 | 1005.0 |
| 20260506162140 | 53 | 224 | 0.0 | 0.0 | 0.23 | 0.00 | 1.00 | 48 | 1005.0 |
| 20260506161621 | 53 | 228 | 0.0 | 0.0 | 0.23 | 0.00 | 1.00 | 48 | 1004.9 |
| 20260506161105 | 53 | 234 | 0.0 | 0.0 | 0.23 | 0.00 | 1.00 | 48 | 1005.0 |
| 20260506160548 | 53 | 223 | 0.0 | 0.0 | 0.23 | 0.00 | 1.00 | 48 | 1005.0 |
| 20260506160031 | 53 | 236 | 0.0 | 0.0 | 0.23 | 0.00 | 1.00 | 48 | 1004.8 |
| 20260506155514 | 53 | 233 | 0.0 | 0.0 | 0.23 | 0.00 | 1.00 | 48 | 1004.9 |
| 20260506154955 | 53 | 226 | 0.0 | 0.0 | 0.23 | 0.00 | 1.00 | 46 | 1005.1 |